Location: Newark
(44.3248°N, 23.7839°E)
Time: 22:37:28
(UTC+00:00)

PCSat - Pass Details

Date: 19 April 2024
Orbit: 783 x 792 km, 67.1° (Epoch: 20 May)

Event Time Altitude Azimuth Distance (km) Brightness Sun altitude
Rises 02:33:22 0° 331° (NNW) 3,299 12.8 -10.9°
Reaches altitude 10° 02:35:51 10° 336° (NNW) 2,367 12.1 -10.5°
Maximum altitude 02:41:10 53° 53° (NE) 972 10.5 -9.6°
Drops below altitude 10° 02:46:27 10° 131° (SE) 2,353 12.4 -8.8°
Sets 02:48:55 0° 136° (SE) 3,278 13.0 -8.4°
